Lapse_Rate
0.3 0.3 0.9 1.2 1.2 1.2 0.9 0.7 0.2 0.1 0.0 -0.0 -0.0 0.5 0.5 -0.1 2.4 3.1 3.0 5.6 3.6 3.5 2.6 1.5 2.4 1.3 2.8 3.6 2.9 0.9 6.5 6.5 6.5 6.5 6.5 4.9 6.2 4.1 5.5 5.3 5.3 4.0 5.5 3.8 4.7
0.8 0.9 1.1 1.3 1.5 1.3 1.0 0.6 0.2 0.3 -0.0 -0.2 -0.2 0.1 0.2 -0.1 2.9 3.1 6.5 4.7 4.1 3.5 3.3 2.0 2.4 1.2 2.2 4.0 2.5 4.4 6.5 6.5 6.4 6.4 6.5 5.5 5.9 5.2 5.8 5.5 5.7 4.3 4.3 4.0 5.1
1.0 1.1 1.3 1.5 1.6 1.0 0.8 0.3 0.1 0.2 0.2 -0.1 -0.3 -0.1 0.4 0.4 4.6 5.7 6.0 4.5 4.4 3.9 3.3 2.9 2.7 3.7 4.9 4.2 4.3 6.0 6.5 6.5 6.3 5.6 4.9 5.4 4.9 5.2 6.0 6.5 4.8 4.8 6.3 6.0 5.9
0.8 1.0 1.1 1.8 1.7 1.0 0.6 0.2 0.2 0.1 -0.1 -0.2 -0.2 0.1 0.8 3.3 6.5 5.5 5.3 3.9 4.6 4.6 4.7 4.4 3.9 4.4 5.9 6.5 4.2 6.5 5.6 5.8 5.3 4.3 4.4 5.8 4.0 5.5 5.8 5.4 4.9 3.8 7.0 5.7 5.9
1.1 1.4 1.7 1.5 1.2 0.6 0.4 0.2 -0.1 -0.0 0.2 0.3 0.7 0.9 3.3 3.7 6.4 6.6 4.5 4.2 5.2 5.6 4.7 4.6 4.8 5.4 6.5 6.3 5.6 6.5 6.3 5.0 4.2 4.2 4.9 3.1 5.8 5.9 5.9 4.8 3.1 3.3 6.5 6.1 5.9
1.7 1.1 0.9 0.9 0.9 0.5 0.5 0.4 0.4 0.6 0.7 1.3 1.2 1.3 4.6 5.7 7.1 6.0 3.7 4.8 3.7 4.9 5.1 4.9 5.9 5.8 5.6 6.1 6.3 6.0 6.0 5.8 4.3 4.5 4.8 5.9 5.7 4.7 5.6 6.0 5.6 4.2 6.6 6.6 6.3
1.0 0.6 0.6 0.8 0.9 1.0 1.0 1.3 1.8 1.8 1.9 1.7 1.6 2.0 4.1 6.8 6.2 5.2 3.1 4.8 4.0 4.7 6.0 6.1 5.8 4.5 5.3 6.4 5.0 5.8 6.5 6.5 5.5 4.6 6.0 4.3 6.5 6.5 6.4 5.4 6.5 5.9 6.0 6.4 6.0
0.7 0.7 0.8 1.0 1.5 1.5 1.7 2.3 2.8 2.4 2.2 1.9 1.8 3.7 6.3 7.0 6.8 4.0 2.2 3.5 3.2 3.4 4.2 4.2 4.4 3.8 4.3 4.4 5.0 6.5 6.5 6.5 6.5 5.8 5.3 5.1 6.5 6.4 6.4 5.8 6.0 4.5 3.7 6.3 3.5
1.2 1.2 1.3 1.9 2.3 2.3 3.0 3.2 4.0 3.4 2.4 2.3 4.1 3.9 6.1 6.5 5.1 4.1 3.7 3.3 3.9 4.2 3.3 4.8 2.3 3.4 3.2 6.5 6.5 6.5 6.5 6.5 6.5 5.9 6.5 6.6 6.5 6.4 7.1 6.9 7.1 6.8 5.0 2.7 2.5
2.0 2.1 2.1 2.5 2.4 2.9 3.0 3.5 4.0 4.4 4.1 4.2 4.5 4.6 5.6 6.3 5.8 4.0 3.5 4.1 2.5 3.4 3.1 2.4 1.8 6.5 6.5 6.5 6.5 6.5 6.5 6.5 6.5 6.5 6.5 6.5 6.5 6.5 7.0 7.0 7.0 7.0 6.4 4.9 3.2
2.5 2.4 2.3 3.0 3.1 2.9 2.7 2.4 2.4 3.1 3.5 5.8 6.0 5.1 6.4 6.3 5.6 4.3 3.5 3.9 2.9 2.7 6.5 4.4 6.5 6.5 6.5 6.5 6.5 6.5 6.5 6.5 6.5 6.5 6.5 6.5 6.5 6.5 6.7 6.8 6.6 6.8 7.0 7.0 5.7
2.1 2.5 2.8 3.8 3.6 2.5 1.2 2.5 5.3 4.9 5.4 6.2 6.4 6.4 7.0 6.3 4.9 4.9 4.2 4.5 4.7 6.5 6.2 6.5 6.5 6.5 6.6 6.5 6.5 6.5 6.5 6.5 6.5 6.5 6.5 6.5 6.5 6.5 6.5 6.6 6.7 6.8 6.9 7.1 6.5
2.0 2.2 3.9 4.3 3.6 1.6 1.6 3.2 2.7 4.1 3.8 6.2 6.7 6.7 6.9 5.0 5.5 4.7 4.3 5.4 5.9 6.5 6.5 6.5 6.5 6.3 6.5 6.5 6.5 6.5 6.5 6.5 6.5 6.5 6.5 6.5 6.5 6.5 6.5 6.9 7.2 7.2 7.3 7.4 7.4
2.3 2.4 4.5 5.2 2.7 1.0 3.3 2.2 2.3 3.2 6.5 6.5 6.3 6.8 6.5 4.9 6.1 5.7 4.9 5.9 5.8 6.5 6.5 6.5 6.3 6.5 6.5 6.5 6.5 6.5 6.5 6.5 6.5 6.5 6.5 6.5 6.5 6.5 6.5 6.5 6.6 6.9 7.1 7.2 7.2
2.6 2.7 4.6 6.0 2.0 3.0 3.5 1.8 2.3 3.0 6.5 6.5 6.5 7.2 5.2 5.3 5.9 6.4 5.7 5.4 6.5 6.5 6.5 6.5 6.5 6.5 6.5 6.5 6.5 6.5 6.5 6.5 6.5 6.5 6.5 6.5 6.5 6.5 6.5 6.5 6.5 6.7 7.4 7.8 7.9
3.1 3.9 3.9 2.4 0.9 3.2 2.2 1.8 2.0 6.5 6.5 6.5 6.4 6.5 6.1 5.5 6.3 5.4 5.9 5.0 6.2 6.5 6.4 6.5 6.1 6.4 6.5 6.5 6.5 6.5 6.5 6.5 6.5 6.5 6.5 6.5 6.5 6.5 6.5 6.5 6.5 6.9 7.3 7.7 8.1
3.6 4.2 3.2 1.9 3.1 2.2 1.6 1.5 6.5 6.5 6.5 6.5 6.5 6.5 6.5 6.5 6.5 6.3 6.5 6.5 6.5 6.5 6.5 6.5 6.5 6.5 6.5 6.5 6.5 6.5 6.5 6.5 6.5 6.5 6.5 6.5 6.5 6.5 6.5 6.5 6.7 6.8 7.2 7.6 8.2
3.6 4.9 1.8 1.4 1.8 1.9 0.8 5.8 6.5 6.5 6.5 6.5 6.5 6.5 6.5 6.5 6.5 6.5 6.5 6.5 6.5 6.5 6.5 6.5 6.5 6.5 6.5 6.5 6.5 6.5 6.5 6.5 6.5 6.5 6.5 6.5 6.5 6.5 6.5 6.9 7.0 7.3 7.5 7.6 7.8
4.2 -0.3 0.3 0.8 1.7 0.4 0.9 6.5 6.5 6.5 6.5 6.5 6.5 6.5 6.5 6.5 6.5 6.5 6.5 6.5 6.5 6.5 6.5 6.5 6.5 6.5 6.5 6.6 6.5 6.5 6.5 6.5 6.5 6.5 6.5 6.5 6.5 6.5 6.5 6.5 6.6 6.5 7.3 7.3 7.4
-0.2 0.2 1.5 1.2 1.4 -0.2 5.1 6.5 6.5 6.4 6.5 6.5 6.5 6.5 6.5 6.5 6.5 6.5 6.5 6.5 6.5 6.3 5.9 6.5 6.5 6.5 6.5 6.2 6.3 6.5 6.5 6.5 6.5 6.5 6.5 6.5 6.5 6.5 6.5 6.5 6.5 6.3 6.6 7.4 7.2
-0.4 2.5 2.3 1.0 0.1 0.5 6.5 6.5 6.5 6.3 6.2 6.5 6.5 6.5 6.5 6.5 6.5 6.5 6.5 6.5 6.4 6.5 6.3 6.5 6.5 6.5 6.5 6.5 6.5 6.5 6.5 6.5 6.5 6.5 6.5 6.5 6.5 6.5 6.5 6.5 6.5 6.5 6.8 7.0 7.0
-0.5 4.8 1.5 0.3 2.8 3.7 6.5 6.5 6.5 6.1 5.6 6.2 6.3 6.5 6.5 6.5 6.5 6.5 6.5 6.5 5.8 6.4 6.5 6.5 6.5 6.5 6.5 6.5 6.5 6.5 6.5 6.5 6.5 6.5 6.5 6.5 6.5 6.5 6.5 6.5 6.7 7.0 7.3 7.3 7.1
1.5 1.1 1.0 0.9 6.5 6.5 6.2 6.5 6.2 6.4 6.3 6.5 6.5 6.4 6.3 6.5 6.5 6.5 6.5 6.4 5.7 6.2 6.5 6.5 6.5 6.5 6.5 6.5 6.5 6.5 6.5 6.5 6.5 6.5 6.5 6.5 6.5 6.7 6.8 6.8 7.0 6.9 7.4 7.6 7.6
0.2 6.5 0.7 -0.8 1.4 6.0 6.5 6.5 6.5 6.0 6.0 5.9 6.4 6.1 6.5 6.5 6.5 6.5 6.5 6.5 6.6 6.4 7.2 6.0 6.5 6.5 6.5 6.5 6.5 6.5 6.5 6.5 6.5 6.5 6.5 6.5 6.5 6.5 6.5 6.5 6.6 6.9 7.2 7.4 7.8
-1.1 2.9 3.4 6.5 5.4 5.7 6.1 6.5 6.5 6.5 6.3 5.5 6.4 6.5 6.5 6.5 6.5 6.5 6.5 6.5 6.3 6.6 5.7 6.2 6.5 6.5 6.5 6.5 6.5 6.5 6.5 6.5 6.5 6.5 6.5 6.5 6.5 6.5 6.5 6.5 6.2 6.6 6.8 7.4 7.5
0.1 2.1 1.2 3.2 4.8 6.2 6.3 6.5 6.5 6.5 6.4 6.5 6.5 6.5 6.5 6.5 6.5 6.5 6.5 6.5 6.5 6.3 6.5 6.3 6.5 6.5 6.5 6.5 6.5 6.5 6.5 6.5 6.5 6.5 6.5 6.5 6.5 6.4 6.5 6.1 6.4 6.6 6.7 7.0 6.9
-1.8 -0.4 0.6 5.1 5.4 6.4 6.5 6.5 6.5 6.2 6.3 5.9 5.9 6.4 6.5 6.4 5.3 5.5 5.3 5.0 6.2 6.5 6.5 6.5 6.5 6.5 6.5 6.5 6.5 6.5 6.5 6.5 6.5 6.5 6.5 6.5 6.5 5.7 6.5 6.5 6.0 5.5 5.7 6.0 5.9
Wind_Speed
8 9 9 10 10 10 11 11 12 11 9 10 13 15 17 20 12 6 11 7 8 18 9 7 6 8 4 2 3 4 5 1 2 4 6 5 7 6 4 4 4 8 3 9 17
7 9 10 10 10 10 11 11 11 11 11 10 11 13 15 17 4 9 3 20 19 6 6 8 8 9 4 3 4 5 4 8 3 2 4 5 2 5 4 4 4 5 12 17 18
9 9 9 9 10 10 11 11 11 11 11 9 10 11 13 10 4 5 19 25 17 3 2 2 1 2 4 3 5 2 4 1 2 4 3 5 7 5 2 5 5 5 14 18 18
8 9 9 9 9 9 10 10 11 11 11 10 9 10 11 2 2 6 24 24 14 2 4 5 5 4 4 3 4 3 4 2 4 5 6 8 8 6 3 6 4 13 15 18 18
8 8 9 10 10 9 10 10 10 10 9 6 6 9 4 6 3 10 20 16 5 4 5 5 6 2 3 1 2 3 4 5 8 7 7 7 4 3 17 21 6 14 14 14 14
7 9 10 9 9 8 9 9 8 8 7 5 6 6 3 6 6 16 16 5 5 4 5 7 3 1 4 3 3 2 2 5 7 9 5 8 5 6 19 17 2 11 14 12 13
9 9 9 9 9 8 7 6 6 6 6 5 6 2 10 1 3 15 11 3 3 2 3 3 3 7 2 3 5 3 3 4 11 11 5 7 7 9 16 16 16 7 10 14 14
9 8 9 10 9 7 7 7 7 8 8 3 5 2 4 5 7 8 9 7 8 7 3 6 6 6 5 3 6 6 6 5 6 13 7 7 5 19 19 17 20 21 16 9 14
9 8 9 9 9 9 12 10 6 6 6 3 5 5 3 12 8 7 5 6 5 5 9 5 8 4 8 4 4 7 3 4 6 6 5 7 4 15 18 18 20 19 20 20 21
8 7 7 8 10 14 10 2 5 4 4 1 3 6 7 7 6 7 6 7 7 3 7 11 6 5 6 7 1 3 3 3 4 7 6 7 5 10 15 19 18 18 19 20 21
7 7 8 9 12 14 5 4 5 7 10 4 1 5 2 6 3 9 6 7 7 9 6 7 8 5 4 4 3 5 3 3 3 4 7 3 6 12 13 20 20 20 20 21 21
10 9 8 9 13 8 5 5 2 2 4 4 3 3 2 3 7 16 9 7 8 5 4 7 7 4 6 7 8 6 3 4 4 5 4 4 7 7 13 14 14 16 19 21 24
11 10 9 9 5 8 6 4 6 3 5 4 1 1 3 7 5 10 8 3 7 7 7 7 4 6 6 8 6 3 4 2 3 5 1 3 1 7 5 13 15 17 15 18 20
13 12 11 4 8 2 3 7 6 2 4 4 4 2 4 5 4 4 5 3 7 4 3 6 7 7 7 5 5 3 4 2 5 5 2 2 4 3 8 10 17 17 18 19 21
13 11 16 10 5 3 4 10 3 4 4 2 2 1 6 8 3 13 5 8 6 6 4 0 6 7 7 4 4 3 6 4 3 4 1 1 3 5 6 10 18 17 18 18 18
13 10 4 7 3 2 9 5 4 6 3 4 2 3 6 7 5 7 8 7 2 5 7 3 2 4 3 4 3 5 3 2 3 2 1 3 4 2 5 11 15 15 18 18 18
10 12 6 2 0 8 4 4 5 6 4 6 3 4 6 4 4 6 6 8 4 2 5 4 4 2 4 5 5 8 5 3 3 2 3 2 3 2 6 9 11 17 18 17 16
11 6 6 4 6 5 4 6 6 3 3 4 4 5 5 3 3 5 3 6 6 4 3 4 5 6 7 4 3 4 1 2 3 2 3 4 3 3 4 6 6 9 13 14 16
5 4 3 7 8 4 6 6 5 2 3 4 2 4 5 5 4 4 3 3 2 5 3 2 1 3 6 2 3 5 1 3 3 1 1 2 3 7 11 9 9 10 14 15 15
3 3 3 13 5 5 5 4 0 3 3 1 3 3 2 6 4 3 4 3 5 4 2 1 0 3 3 5 4 2 5 1 2 2 4 1 0 4 14 13 14 12 14 15 15
4 4 3 7 4 6 4 2 1 3 2 4 3 3 3 2 3 2 3 1 4 5 2 2 3 4 4 4 2 5 4 4 3 2 3 2 4 2 8 10 13 13 13 13 14
3 3 3 3 4 2 2 1 2 5 6 4 4 3 3 3 3 2 3 1 6 1 1 2 3 1 4 3 2 2 7 4 3 2 2 1 1 3 9 8 9 13 13 12 11
3 1 3 5 4 2 2 4 3 4 4 3 3 4 4 2 2 3 2 3 6 4 2 1 2 1 1 0 3 4 12 10 6 1 3 2 2 9 9 12 10 12 13 13 12
3 3 4 4 1 6 4 3 2 3 4 5 3 4 3 4 5 1 3 3 2 3 10 5 3 3 4 5 3 3 8 13 7 3 2 3 8 9 10 12 12 12 12 13 12
3 1 2 0 3 3 3 2 2 3 2 4 2 2 3 2 1 2 1 2 4 6 4 4 3 3 2 1 2 2 4 7 10 7 2 5 6 10 11 10 10 12 11 10 11
4 4 3 2 2 3 4 1 2 1 3 2 4 2 2 4 3 1 1 1 1 4 3 2 2 2 4 5 7 3 5 1 2 2 2 8 9 6 9 8 8 11 10 12 13
0 2 4 4 2 3 2 2 2 3 2 3 5 4 3 4 5 5 4 2 1 4 2 3 5 3 4 4 6 6 3 3 2 2 3 3 5 5 8 9 6 9 7 9 10
Wind_Direction
2 5 1 350 346 344 350 348 344 341 340 341 342 347 347 347 342 34 44 278 298 313 335 310 33 4 21 49 45 122 61 154 248 162 290 324 3 309 286 61 39 358 132 137 140
360 2 353 346 339 344 346 342 333 326 333 339 341 344 342 344 13 50 321 343 349 358 28 31 5 354 36 358 15 79 103 214 217 241 296 290 313 302 20 4 43 52 82 126 139
3 353 346 337 333 344 339 333 326 328 331 335 341 342 337 337 58 327 340 339 342 12 73 103 80 4 61 359 0 105 149 194 5 280 299 280 332 303 359 334 187 174 149 151 148
348 344 340 326 329 338 328 329 329 337 339 339 344 340 335 356 47 290 332 328 332 343 39 24 28 41 66 47 333 93 48 21 291 306 329 317 326 345 338 307 360 148 162 159 159
341 333 323 325 330 334 332 333 343 345 349 356 359 351 355 46 352 298 331 339 3 22 50 35 48 41 68 49 8 57 348 330 328 347 25 308 354 308 17 328 101 135 159 177 167
337 337 335 335 335 336 335 338 342 345 3 11 12 354 58 72 289 323 336 353 17 30 11 39 22 326 96 84 73 300 314 16 3 6 33 4 313 34 343 343 0 150 171 181 187
345 349 352 348 345 338 337 326 318 327 321 351 13 40 67 125 346 336 357 314 327 349 31 42 18 72 329 88 334 6 17 6 13 340 17 321 44 24 345 353 23 325 193 194 194
351 356 353 350 348 342 327 312 325 308 318 350 351 99 78 298 332 5 342 348 14 34 43 15 86 95 46 321 23 38 44 17 352 9 336 9 110 20 7 29 22 10 1 315 196
351 353 353 345 348 343 328 311 304 311 321 330 31 82 18 327 17 322 29 354 332 17 29 46 63 77 9 64 31 13 79 2 333 61 355 41 341 23 17 32 24 16 6 3 355
356 348 342 340 345 342 343 11 16 24 17 25 47 53 349 333 330 331 335 22 46 350 24 34 51 69 16 41 185 13 36 7 313 338 24 51 3 32 24 38 24 15 10 5 358
5 355 353 350 350 357 25 24 23 4 33 75 147 113 266 299 63 351 349 359 31 50 51 15 66 63 32 32 105 87 74 0 299 323 22 68 53 33 24 37 26 14 9 3 357
16 6 5 1 360 26 62 73 76 191 41 24 51 49 41 66 19 352 11 54 39 44 357 33 47 349 78 52 83 50 72 346 304 331 15 35 110 84 43 40 31 18 9 3 358
16 7 1 352 5 37 69 56 324 104 99 333 10 91 86 72 39 335 22 30 50 42 42 84 352 57 68 39 43 73 81 352 275 317 52 63 94 35 10 37 24 17 10 7 1
18 12 13 31 44 323 48 324 350 110 77 320 354 36 41 115 63 20 18 33 34 45 61 60 344 42 41 53 23 1 350 3 325 9 271 66 275 21 355 13 20 11 5 0 356
14 33 51 66 147 57 304 329 3 56 42 326 351 14 42 79 299 351 347 31 59 15 81 348 35 23 37 355 331 296 320 282 269 221 337 242 132 317 343 353 1 360 359 353 355
9 32 31 32 44 337 326 349 48 46 264 355 44 55 64 27 30 349 19 40 49 57 47 64 344 64 293 308 87 303 348 13 48 94 292 309 167 36 9 348 342 347 347 351 347
21 55 53 77 136 330 360 44 36 106 293 345 358 68 84 39 53 32 22 39 44 34 13 355 43 24 11 354 6 14 34 345 354 14 228 138 57 100 10 1 358 341 337 344 344
49 54 33 55 1 5 48 56 76 272 342 335 24 51 69 32 40 20 32 22 17 61 73 43 339 17 342 64 286 312 30 154 240 289 289 310 195 172 47 5 348 339 336 339 340
18 359 35 345 359 49 71 55 186 221 299 352 28 54 19 9 98 77 48 4 21 29 68 60 209 346 53 39 24 342 33 5 287 131 246 156 75 208 359 356 342 343 343 343 339
71 45 353 335 10 61 72 129 290 236 344 37 91 30 87 357 54 61 9 308 343 52 117 140 89 37 356 32 21 73 306 24 7 286 259 85 252 264 343 338 333 339 341 334 340
52 49 272 1 56 51 105 150 100 348 97 58 76 78 75 71 43 34 343 22 359 327 3 101 121 313 49 16 220 353 14 325 291 226 217 235 261 310 325 333 336 324 335 331 331
89 43 311 43 50 26 76 47 69 360 44 66 85 76 75 59 41 56 31 339 345 337 27 340 112 74 187 212 169 46 345 297 272 345 345 336 265 340 345 330 334 327 329 329 321
87 261 325 80 103 10 8 43 74 38 21 73 74 66 56 91 89 28 17 75 40 56 33 58 63 38 199 25 20 41 354 342 246 167 22 338 8 2 342 341 329 312 322 322 332
82 37 341 45 50 115 94 34 77 30 46 67 115 74 78 51 25 72 28 7 32 95 57 82 70 164 170 199 186 6 2 9 17 35 344 14 326 330 333 330 316 313 319 327 331
38 241 190 326 352 84 81 67 51 22 67 39 66 108 143 123 27 19 28 340 59 13 45 85 95 43 14 158 211 251 21 34 44 15 56 289 298 307 314 305 299 307 298 310 323
120 130 26 62 24 60 4 72 127 90 27 348 119 113 163 144 165 192 192 48 234 32 63 22 131 89 329 246 250 224 78 34 28 345 306 293 297 250 312 303 303 305 315 325 333
220 31 100 321 48 73 253 166 155 118 54 47 141 100 88 167 154 143 128 118 161 152 126 101 128 101 274 243 258 263 210 186 245 243 228 296 263 300 310 317 309 316 327 316 308